Weather in Kentau

Kazakhstan     43°31′05″N   68°30′16″E
temp.,
°C
wind,
m/s
gust,
m/s
humid.,
%
clouds,
%
prec.,
mm/h
press.,
hPa
HPBL,
m
15 april, thu
thu1500:00+15ne8142573 0.2 1014329
03:00+14ene794393 0.4 1013132
06:00+13e4849100 1.6 1013144
09:00+13sse465661 0.2 1016273
12:00+18sse56362 0.2 10151059
15:00+20s563319 0.0 10152226
18:00+20sw563153 0.0 10142457
21:00+18sse224289 0.0 101430
16 april, fri
fri1600:00+14e45629 0.9 101579
03:00+14e455721 0.8 101460
06:00+12e44655 0.8 101461
09:00+14se34540 0.0 1015306
12:00+18sw69395 0.0 10151566
15:00+21wsw810306 0.0 10152357
18:00+20w68290 0.0 10152344
21:00+16nnw22410 0.0 101611
17 april, sat
sat1700:00+15ne11440 0.0 101611
03:00+13ne11451 0.0 101511
06:00+12e1149100 0.0 101611
09:00+16se1138100 0.0 1017106
12:00+19sw1135100 0.0 1018550
15:00+21w332647 0.0 10171922
18:00+21w332493 0.0 10171811
21:00+17nw333541 0.0 101723
18 april, sun
sun1800:00+16ne333983 0.0 101730
03:00+15ne4437100 0.0 101734
06:00+14ne2141100 0.0 101711
09:00+17ssw113433 0.0 1019154
12:00+20sw34293 0.0 10191309
15:00+23wsw67195 0.0 10183358
18:00+22w7820100 0.0 10173136
21:00+17nw22271 0.0 101814
19 april, mon
mon1900:00+16nne22282 0.0 101711
03:00+15ne22285 0.0 101611
06:00+13e22347 0.0 101718
09:00+17ese233175 0.0 1017237
12:00+20ssw342775 0.0 1016779
15:00+23w4621100 0.0 10143073
18:00+22wnw662613 0.0 10132526
21:00+18n333586 0.0 101316